Weather History for Budapest Ferihegy, Hungary

Change the Weather History Date:

Saturday, September 1, 2012

  Actual Average Record
Temperature  
Mean Temperature 72 °F -  
Max Temperature 80 °F 68 °F 86 °F (2011)
Min Temperature 64 °F 49 °F 46 °F (1998)
Cooling Degree Days 7    
Growing Degree Days 22 (Base 50)    
Moisture  
Dew Point 57 °F    
Average Humidity 64    
Maximum Humidity 78    
Minimum Humidity 42    
Precipitation  
Precipitation 0.00 in - - ()
Sea Level Pressure  
Sea Level Pressure 30.02 in    
Wind  
Wind Speed 9 mph ()    
Max Wind Speed 14 mph    
Max Gust Speed -    
Visibility 6.2 miles    
Events Rain    
Averages and records for this station are not official NWS values.
T = Trace of Precipitation, MM = Missing Value Source: Averaged Metar Reports

Daily Weather History Graph

Daily Weather History Graph

Search for Another Location

Airport:

Trip Planner

Search our weather history database for the weather conditions in past years. The results will help you decide how hot, cold, wet, or windy it might be!

Date:

Astronomy

Sep. 01, 2012 Rise Set
Actual Time 6:02 AM CEST 7:22 PM CEST
Civil Twilight 5:30 AM CEST 7:54 PM CEST
Nautical Twilight 4:51 AM CEST 8:32 PM CEST
Astronomical Twilight 4:10 AM CEST 9:13 PM CEST
Moon 7:20 PM CEST (9/1) 6:58 AM CEST (9/1)
Length of Visible Light 14h 24m
Length of Day
13h 20m
Full, 99% of the Moon is Illuminated
Sep 1
Full
Sep 8
Last Quarter
Sep 16
New
Sep 22
First Quarter
Sep 30
Full

Hourly Weather History & Observations

Time (CEST) Temp. Heat Index Dew Point Humidity Pressure Visibility Wind Dir Wind Speed Gust Speed Precip Events Conditions
12:00 AM 69.8 °F - 55.4 °F 60% 29.92 in - NW 10.4 mph - N/A   Clear
12:30 AM 66.2 °F - 57.2 °F 73% 29.92 in - NW 11.5 mph - N/A   Clear
1:00 AM 66.2 °F - 57.2 °F 73% 29.95 in - NW 11.5 mph - N/A   Clear
1:30 AM 64.4 °F - 57.2 °F 77% 29.95 in - NW 11.5 mph - N/A   Clear
2:00 AM 64.4 °F - 57.2 °F 77% 29.95 in - NW 8.1 mph - N/A   Clear
2:30 AM 64.4 °F - 57.2 °F 77% 29.95 in - NNW 10.4 mph - N/A   Clear
3:00 AM 64.4 °F - 57.2 °F 77% 29.95 in - NNW 9.2 mph - N/A   Clear
3:30 AM 64.4 °F - 57.2 °F 77% 29.95 in - NNW 6.9 mph - N/A   Clear
4:00 AM 64.4 °F - 57.2 °F 77% 29.95 in - NW 6.9 mph - N/A   Clear
4:30 AM 64.4 °F - 57.2 °F 77% 29.98 in - NW 9.2 mph - N/A   Clear
5:00 AM 64.4 °F - 57.2 °F 77% 29.98 in - NW 8.1 mph - N/A   Clear
5:30 AM 64.4 °F - 57.2 °F 77% 29.95 in 6.2 mi NNW 10.4 mph - N/A Rain Light Rain
6:30 AM 64.4 °F - 57.2 °F 77% 29.98 in 6.2 mi NW 10.4 mph - N/A   Mostly Cloudy
7:00 AM 64.4 °F - 57.2 °F 77% 30.01 in - NNW 6.9 mph - N/A   Clear
7:30 AM 64.4 °F - 57.2 °F 77% 29.98 in 6.2 mi North 8.1 mph - N/A Rain Light Rain
8:00 AM 64.4 °F - 57.2 °F 77% 29.98 in 6.2 mi NE 8.1 mph - N/A Rain Light Rain
8:30 AM 66.2 °F - 59.0 °F 78% 30.01 in 6.2 mi WNW 5.8 mph - N/A   Mostly Cloudy
9:00 AM 66.2 °F - 59.0 °F 78% 30.01 in 6.2 mi NW 10.4 mph - N/A   Mostly Cloudy
9:30 AM 68.0 °F - 57.2 °F 68% 30.01 in 6.2 mi NNW 8.1 mph - N/A   Mostly Cloudy
10:00 AM 68.0 °F - 57.2 °F 68% 30.04 in 6.2 mi NW 9.2 mph - N/A   Mostly Cloudy
10:30 AM 71.6 °F - 57.2 °F 60% 30.04 in 6.2 mi NNW 9.2 mph - N/A   Mostly Cloudy
11:00 AM 71.6 °F - 59.0 °F 64% 30.04 in 6.2 mi WNW 11.5 mph - N/A   Mostly Cloudy
11:30 AM 71.6 °F - 57.2 °F 60% 30.06 in 6.2 mi WNW 12.7 mph - N/A Rain Light Rain Showers
12:00 PM 71.6 °F - 55.4 °F 57% 30.06 in 6.2 mi NNW 10.4 mph - N/A   Mostly Cloudy
12:30 PM 71.6 °F - 57.2 °F 60% 30.06 in 6.2 mi NW 10.4 mph - N/A   Mostly Cloudy
1:00 PM 75.2 °F - 57.2 °F 53% 30.06 in 6.2 mi NW 10.4 mph - N/A   Scattered Clouds
1:30 PM 73.4 °F - 59.0 °F 61% 30.06 in 6.2 mi NW 13.8 mph - N/A   Scattered Clouds
2:00 PM 77.0 °F - 57.2 °F 50% 30.06 in - NW 13.8 mph - N/A   Clear
2:30 PM 77.0 °F - 55.4 °F 47% 30.06 in - NW 13.8 mph - N/A   Clear
3:00 PM 78.8 °F - 55.4 °F 44% 30.04 in - NNW 12.7 mph - N/A   Clear
3:30 PM 78.8 °F - 55.4 °F 44% 30.04 in - NW 11.5 mph - N/A   Clear
4:00 PM 80.6 °F 80.5 °F 55.4 °F 42% 30.04 in - NNW 10.4 mph - N/A   Clear
4:30 PM 78.8 °F - 57.2 °F 47% 30.04 in - NW 11.5 mph - N/A   Clear
5:00 PM 80.6 °F 80.8 °F 57.2 °F 45% 30.04 in - NW 13.8 mph - N/A   Clear
5:30 PM 78.8 °F - 57.2 °F 47% 30.04 in - NW 12.7 mph - N/A   Clear
6:00 PM 78.8 °F - 57.2 °F 47% 30.04 in - NW 11.5 mph - N/A   Clear
6:30 PM 77.0 °F - 57.2 °F 50% 30.04 in - NNW 10.4 mph - N/A   Clear
7:00 PM 75.2 °F - 57.2 °F 53% 30.04 in - NW 12.7 mph - N/A   Clear
7:30 PM 73.4 °F - 57.2 °F 57% 30.06 in - NNW 11.5 mph - N/A   Clear
8:00 PM 73.4 °F - 57.2 °F 57% 30.06 in - NNW 11.5 mph - N/A   Clear
8:30 PM 71.6 °F - 57.2 °F 60% 30.06 in - NNW 10.4 mph - N/A   Clear
9:00 PM 71.6 °F - 57.2 °F 60% 30.06 in - NNW 8.1 mph - N/A   Clear
9:30 PM 69.8 °F - 57.2 °F 64% 30.09 in - NW 6.9 mph - N/A   Clear
10:00 PM 68.0 °F - 59.0 °F 73% 30.09 in - NW 9.2 mph - N/A   Clear
10:30 PM 68.0 °F - 59.0 °F 73% 30.09 in - NW 8.1 mph - N/A   Clear
11:00 PM 68.0 °F - 59.0 °F 73% 30.09 in - NW 6.9 mph - N/A   Clear
11:30 PM 68.0 °F - 59.0 °F 73% 30.09 in - NW 6.9 mph - N/A   Clear